Flag for U.S.A. Weather past 2 weeks in Tuba City, Arizona, U.S.A.

Now
57 °F

Partly sunny.


Feels Like: 57 °F
Forecast: 60 / 80 °F
Wind: 3 mph from Southeast

Location: Grand Canyon National Park Airport

Current Time: Sep 21, 2014 at 8:54:23 AM

Latest Report: Sep 21, 2014 at 7:54 AM


Visibility: 10 mi

Pressure: 30.06 "Hg

Humidity: 90%

Dew point: 54 °F

Location of Tuba CityLocation

Historic Weather in Tuba City — Graph

°F

Tuba City temperature yesterday

Maximum temperature yesterday: 79 °F (at 12:54 PM)
Minimum temperature yesterday: 48 °F (at 4:54 AM)
Average temperature yesterday: 60 °F

Past Weeks' High & Low Weather Summary

 TemperatureHumidityPressure
High81 °F (Sep 12, 3:54 PM)97% (Sep 6, 6:54 AM)30.29 "Hg (Sep 6, 6:54 AM)
Low40 °F (Sep 11, 5:54 AM)18% (Sep 12, 4:54 PM)29.80 "Hg (Sep 18, 5:54 PM)
Average62 °F65%29.97 "Hg
* Reported Sep 6 6:54 AM — Sep 21 6:54 AM, Tuba City, Weather by CustomWeather, © 2014

Note: Actual official high and low records may vary slightly from our data, if they occured in-between our weather recording intervals... More about our weather records

Advertising

Tuba City weather history for previous 24 hours

 ConditionsComfort  
Time TempWeatherWind HumidityBarometerVisibility
6:54 AM
Sep 21
55 °FPassing clouds.No wind93%30.03 "Hg10 mi
5:54 AM54 °FOvercast.No wind93%30.00 "Hg10 mi
4:54 AM53 °FMostly cloudy.No wind96%29.99 "Hg10 mi
3:54 AM55 °FPassing clouds.No wind90%29.97 "Hg10 mi
2:54 AM60 °FOvercast.3 mph78%29.94 "Hg10 mi
1:54 AM58 °FMostly cloudy.3 mph87%29.94 "Hg10 mi
12:54 AM57 °FMostly cloudy.No wind87%29.94 "Hg10 mi
11:54 PM
Sep 20
56 °FPassing clouds.7 mph93%29.94 "Hg10 mi
10:54 PM57 °FMostly cloudy.No wind93%29.94 "Hg10 mi
9:54 PM56 °FPassing clouds.No wind93%29.98 "Hg10 mi
8:54 PM57 °FPassing clouds.5 mph90%29.99 "Hg10 mi
7:54 PM59 °FPassing clouds.No wind87%30.00 "Hg10 mi
6:54 PM62 °FThunderstorms. Partly sunny.6 mph70%30.00 "Hg10 mi
5:54 PM66 °FThundershowers. Overcast.No wind61%29.97 "Hg10 mi
4:54 PM66 °FThundershowers. Mostly cloudy.5 mph61%29.97 "Hg10 mi
3:54 PM68 °FPartly sunny.9 mph59%29.97 "Hg10 mi
2:54 PM75 °FBroken clouds.8 mph39%29.95 "Hg10 mi
1:54 PM77 °FPartly sunny.12 mph36%29.94 "Hg10 mi
12:54 PM79 °FScattered clouds.12 mph36%29.96 "Hg10 mi
11:54 AM78 °FPassing clouds.14 mph37%29.98 "Hg10 mi
Weather by CustomWeather, © 2014

See weather overviewHow to use our weather pages